User: anonymous   Login
Location: Unspecified
(0.0000°N, 0.0000°E)
Time: 23:56:25
(UTC+00:00)
Language:

STARLINK-34478 - Orbit

View from above orbital plane
View from above orbital plane
View from above satellite
View from above satellite

Ground track
Ground track

The orbit is defined by the following mean orbital elements,

1 64435U          26145.36455286 +.00000000 +00000-0 +91415-3 0 00005
2 64435  70.0004 241.0788 0003422 268.7946  91.2821 14.98340919    09
Epoch (UTC): 25 May 2026 08:44:57
Eccentricity: 0.0003422
inclination: 70.0004°
perigee height: 570 km
apogee height: 574 km
right ascension of ascending node: 241.0788°
argument of perigee: 268.7946°
revolutions per day: 14.98340919
mean anomaly at epoch: 91.2821°

The dashed part of the orbit path shows where the satellite is in the earth's shadow,  

DLR